User: anonymous   Login
Location: Bodest
(46.3000°N, 22.5667°E)
Time: 12:04:20
(UTC+00:00)
Language:

SL-19 R/B - Orbit

View from above orbital plane
View from above orbital plane
View from above satellite
View from above satellite

Ground track
Ground track

The orbit data is extracted from the following two-line orbital elements,

1 36589U 10023B   22272.67092201 -.00000036  00000-0  16231-4 0  9996
2 36589 100.5465 119.8296 0225839  34.2962 347.8818 13.58414144611456
Epoch (UTC): 29 September 2022 16:06:07
Eccentricity: 0.0225839
inclination: 100.5465°
perigee height: 874 km
apogee height: 1209 km
right ascension of ascending node: 119.8296°
argument of perigee: 34.2962°
revolutions per day: 13.58414144
mean anomaly at epoch: 347.8818°
orbit number at epoch: 61145

The dashed part of the orbit path shows where the satellite is in the earth's shadow,  

DLR